Flag Weather past 2 weeks in Shenzhen, Guangdong, China

Now
81 °F

Sunny.


Feels Like: 82 °F
Forecast: 69 / 79 °F
Wind: 3 mph from North

Location: Shenzhen Airport

Current Time: Nov 23, 2014 at 11:41:06 AM

Latest Report: Nov 23, 2014 at 11:00 AM


Visibility: 10 mi

Pressure: 30.04 "Hg

Humidity: 58%

Dew point: 64 °F

Location of ShenzhenLocation

Historic Weather in Shenzhen — Graph

°F

Shenzhen temperature yesterday

Maximum temperature yesterday: 79 °F (at 12:00 PM)
Minimum temperature yesterday: 66 °F (at 6:00 AM)
Average temperature yesterday: 73 °F

Past Weeks' High & Low Weather Summary

 TemperatureHumidityPressure
High82 °F (Nov 16, 1:00 PM)94% (Nov 8, 10:00 AM)30.24 "Hg (Nov 8, 10:00 AM)
Low63 °F (Nov 13, 5:00 AM)42% (Nov 16, 2:00 PM)29.95 "Hg (Nov 21, 3:00 PM)
Average71 °F69%30.08 "Hg
* Reported Nov 8 10:00 AM — Nov 23 10:00 AM, Shenzhen, Weather by CustomWeather, © 2014

Note: Actual official high and low records may vary slightly from our data, if they occured in-between our weather recording intervals... More about our weather records

Advertising

Shenzhen weather history for previous 24 hours

 ConditionsComfort  
Time TempWeatherWind HumidityBarometerVisibility
10:00 AM
Nov 23
77 °FPassing clouds.6 mph65%30.07 "HgN/A
9:00 AM73 °FClear.8 mph74%30.07 "Hg5 mi
8:00 AM72 °FClear.10 mph78%30.07 "Hg4 mi
7:00 AM70 °FClear.6 mph83%30.04 "Hg4 mi
6:00 AM70 °FPassing clouds.3 mph83%30.01 "HgN/A
5:00 AM70 °FClear.3 mph83%30.01 "Hg10 mi
4:00 AM70 °FClear.6 mph83%30.01 "Hg10 mi
3:00 AM72 °FClear.1 mph78%30.01 "Hg5 mi
2:00 AM72 °FClear.1 mph78%30.04 "Hg4 mi
1:00 AM72 °FClear.1 mph78%30.04 "Hg4 mi
12:00 AM72 °FClear.6 mph78%30.04 "Hg4 mi
11:00 PM
Nov 22
72 °FPassing clouds.3 mph78%30.04 "HgN/A
10:00 PM72 °FClear.8 mph78%30.04 "Hg10 mi
9:00 PM72 °FClear.8 mph78%30.01 "Hg10 mi
8:00 PM73 °FClear.10 mph74%30.01 "Hg10 mi
7:00 PM73 °FClear.15 mph83%29.98 "Hg10 mi
6:00 PM75 °FClear.8 mph78%29.98 "Hg10 mi
5:00 PM75 °FSunny.8 mph78%29.95 "Hg10 mi
4:00 PM77 °FSunny.8 mph74%29.95 "Hg10 mi
3:00 PM77 °FClear.8 mph69%29.95 "Hg5 mi
2:00 PM79 °FClear.8 mph65%29.95 "Hg4 mi
1:00 PM79 °FPassing clouds.6 mph65%29.98 "Hg4 mi
12:00 PM79 °FPassing clouds.8 mph61%30.01 "Hg4 mi
11:00 AM77 °FClear.3 mph65%30.04 "Hg4 mi
Weather by CustomWeather, © 2014

See weather overviewHow to use our weather pages